SV1AAW Weather Reports


Display with metric or nautical units.
time (UTC)temp
F
wind
direction
speed
MPH
gust
MPH
rain 1hr
in
rain 24hr
in
rain mn
in
humidity
%
barometer
mb
20260504050018 53 1 8.0 18.0 0.00 0.29 0.00 63 1017.6
20260504045019 53 359 8.0 17.0 0.00 0.29 0.00 64 1017.7
20260504044017 52 356 7.0 15.0 0.00 0.29 0.00 64 1017.6
20260504043017 52 337 7.0 17.0 0.00 0.29 0.00 64 1017.5
20260504042022 52 341 8.0 15.0 0.00 0.29 0.00 64 1017.5
20260504041017 52 358 7.0 15.0 0.00 0.29 0.00 65 1017.2
20260504040022 52 334 7.0 14.0 0.00 0.29 0.00 65 1017.2
20260504035037 52 351 6.0 13.0 0.00 0.29 0.00 65 1017.1
20260504034017 52 335 7.0 15.0 0.00 0.29 0.00 64 1017.1
20260504033017 51 344 7.0 17.0 0.00 0.29 0.00 64 1017.1
20260504032017 51 344 7.0 16.0 0.00 0.29 0.00 64 1016.9
20260504031023 52 343 7.0 13.0 0.00 0.29 0.00 64 1016.9
20260504030021 52 345 7.0 14.0 0.00 0.29 0.00 63 1016.9
20260504025044 52 349 7.0 15.0 0.00 0.29 0.00 62 1016.7
20260504024023 52 356 9.0 18.0 0.00 0.29 0.00 63 1016.7
20260504023024 52 344 8.0 16.0 0.00 0.29 0.00 62 1016.6
20260504022022 52 337 7.0 14.0 0.00 0.29 0.00 63 1016.7
20260504021019 52 352 9.0 16.0 0.00 0.29 0.00 62 1016.6
20260504020024 52 350 7.0 17.0 0.00 0.29 0.00 62 1016.7
20260504015021 52 349 8.0 17.0 0.00 0.29 0.00 62 1016.6
20260504014016 51 347 8.0 16.0 0.00 0.29 0.00 61 1016.6
20260504013022 52 341 7.0 17.0 0.00 0.29 0.00 62 1016.5
20260504012021 51 344 9.0 16.0 0.00 0.29 0.00 61 1016.5
20260504011021 52 344 10.0 17.0 0.00 0.29 0.00 60 1016.3
20260504010026 52 346 10.0 21.0 0.00 0.29 0.00 59 1016.3
20260504005043 52 345 10.0 17.0 0.00 0.29 0.00 60 1016.2
20260504004042 52 344 8.0 17.0 0.00 0.29 0.00 60 1016.2
20260504003018 52 359 9.0 22.0 0.00 0.29 0.00 61 1016.1
20260504002025 52 344 9.0 19.0 0.00 0.29 0.00 59 1016.1
20260504001024 52 341 9.0 16.0 0.00 0.29 0.00 59 1016.0
20260504000020 52 355 11.0 26.0 0.00 0.29 0.00 58 1016.1
20260503235026 52 339 9.0 17.0 0.00 0.29 0.00 58 1016.1
20260503234039 52 356 10.0 18.0 0.00 0.29 0.00 57 1016.2
20260503233026 52 342 8.0 16.0 0.00 0.29 0.00 57 1016.5
20260503232025 52 332 10.0 17.0 0.00 0.29 0.00 57 1016.5
20260503231039 52 340 8.0 17.0 0.00 0.29 0.00 57 1016.3
20260503230017 52 334 9.0 19.0 0.00 0.29 0.00 57 1016.2
20260503225017 53 339 9.0 22.0 0.00 0.29 0.00 57 1016.2
20260503224017 53 15 9.0 19.0 0.00 0.29 0.00 57 1016.1
20260503223025 53 359 13.0 29.0 0.00 0.29 0.00 57 1016.0
20260503222022 53 6 13.0 24.0 0.00 0.29 0.00 57 1016.0
20260503221020 53 9 12.0 24.0 0.00 0.29 0.00 57 1015.8
20260503220019 53 0 11.0 25.0 0.00 0.29 0.00 58 1015.7
20260503215019 53 3 11.0 26.0 0.00 0.29 0.00 59 1015.8
20260503214022 53 14 12.0 27.0 0.00 0.29 0.00 59 1015.7
20260503213022 53 357 11.0 22.0 0.00 0.29 0.00 60 1015.6
20260503212116 53 8 12.0 22.0 0.00 0.29 0.00 59 1015.5
20260503211023 54 15 14.0 27.0 0.00 0.29 0.00 58 1015.4
20260503210022 54 4 12.0 26.0 0.00 0.29 0.29 60 1015.3
20260503205023 54 1 13.0 26.0 0.00 0.29 0.29 57 1015.2
20260503204018 54 18 12.0 24.0 0.00 0.29 0.29 59 1015.2
20260503203022 54 8 12.0 22.0 0.00 0.29 0.29 61 1015.1
20260503202016 54 10 11.0 22.0 0.00 0.29 0.29 62 1015.1
20260503201022 54 355 10.0 19.0 0.00 0.29 0.29 63 1015.2
20260503200019 54 8 10.0 21.0 0.00 0.29 0.29 64 1015.0
20260503195025 54 352 13.0 23.0 0.00 0.29 0.29 64 1015.0
20260503194020 55 16 10.0 19.0 0.00 0.29 0.29 65 1014.9
20260503193021 55 4 10.0 21.0 0.00 0.29 0.29 65 1014.8
20260503192039 55 12 11.0 21.0 0.00 0.29 0.29 65 1014.6
20260503191024 55 360 11.0 22.0 0.00 0.29 0.29 66 1014.7
20260503190020 55 6 10.0 22.0 0.00 0.29 0.29 65 1014.5
20260503185038 55 357 10.0 22.0 0.00 0.29 0.29 66 1014.4
20260503184021 55 1 10.0 23.0 0.00 0.29 0.29 65 1014.5
20260503183020 55 355 10.0 24.0 0.00 0.29 0.29 66 1014.4
20260503182024 55 24 11.0 26.0 0.00 0.29 0.29 65 1014.3
20260503181122 55 17 11.0 23.0 0.00 0.29 0.29 65 1014.2
20260503180024 56 18 11.0 30.0 0.00 0.29 0.29 65 1014.1
20260503175023 56 11 11.0 21.0 0.00 0.29 0.29 65 1014.0
20260503174022 55 18 11.0 22.0 0.00 0.29 0.29 64 1013.9
20260503173021 55 25 9.0 19.0 0.00 0.29 0.29 64 1013.9
20260503172018 55 32 8.0 18.0 0.00 0.29 0.29 65 1013.8
20260503171024 55 16 9.0 18.0 0.00 0.29 0.29 66 1013.7
20260503131017 53 355 9.0 19.0 0.02 0.26 0.26 77 1012.4
20260503081022 52 7 8.0 17.0 0.00 0.00 0.00 71 1013.3
20260503072023 52 22 11.0 22.0 0.00 0.00 0.00 69 1013.4
20260503071040 52 5 9.0 17.0 0.00 0.00 0.00 71 1013.5